Weather History for Limon, CO

Change the Weather History Date:

Friday, July 13, 2012

  Actual Average Record
Temperature  
Mean Temperature 73 °F -  
Max Temperature 93 °F - 100 °F (2003)
Min Temperature 52 °F - 46 °F (2002)
Degree Days  
Heating Degree Days 0    
Month to date heating degree days 1  
Cooling Degree Days 8    
Month to date cooling degree days 100  
Growing Degree Days 22 (Base 50)    
Moisture  
Dew Point 40 °F    
Average Humidity 30    
Maximum Humidity 69    
Minimum Humidity 13    
Precipitation  
Precipitation 0.00 in - 0.12 in (2013)
Month to date precipitation 1.20  
Year to date precipitation 6.73  
Sea Level Pressure  
Sea Level Pressure 29.94 in    
Wind  
Wind Speed 7 mph (NE)    
Max Wind Speed 18 mph    
Max Gust Speed 26 mph    
Visibility 10 miles    
Events      
T = Trace of Precipitation, MM = Missing Value Source: NWS Daily Summary

Daily Weather History Graph

Daily Weather History Graph

Search for Another Location

Airport:

Trip Planner

Search our weather history database for the weather conditions in past years. The results will help you decide how hot, cold, wet, or windy it might be!

Date:

Astronomy

Jul. 13, 2012 Rise Set
Actual Time 5:39 AM MDT 8:21 PM MDT
Civil Twilight 5:08 AM MDT 8:52 PM MDT
Nautical Twilight 4:28 AM MDT 9:31 PM MDT
Astronomical Twilight 3:44 AM MDT 10:16 PM MDT
Moon 1:17 AM MDT (7/13) 3:53 PM MDT (7/13)
Length of Visible Light 15h 44m
Length of Day
14h 41m
Waning Crescent, 26% of the Moon is Illuminated
Jul 13
Waning Crescent
Jul 18
New
Jul 26
First Quarter
Aug 1
Full
Aug 9
Last Quarter

Hourly Weather History & Observations

Time (MDT) Temp. Dew Point Humidity Pressure Visibility Wind Dir Wind Speed Gust Speed Precip Events Conditions
12:55 AM 66.9 °F 45.0 °F 45% 29.94 in 10.0 mi WNW 6.9 mph - N/A   Clear
1:55 AM 63.0 °F 45.0 °F 52% 29.94 in 10.0 mi NNW 4.6 mph - N/A   Clear
2:55 AM 63.0 °F 44.1 °F 50% 29.93 in 10.0 mi North 5.8 mph - N/A   Clear
3:55 AM 61.0 °F 44.1 °F 54% 29.92 in 10.0 mi West 6.9 mph - N/A   Clear
4:55 AM 61.0 °F 43.0 °F 52% 29.93 in 10.0 mi NW 5.8 mph - N/A   Clear
5:55 AM 53.1 °F 43.0 °F 69% 29.97 in 10.0 mi North 5.8 mph - N/A   Clear
6:55 AM 64.9 °F 44.1 °F 47% 29.95 in 10.0 mi WNW 4.6 mph - N/A   Clear
7:55 AM 75.0 °F 44.1 °F 33% 29.94 in 10.0 mi Calm Calm - N/A   Clear
8:55 AM 84.0 °F 39.9 °F 21% 29.97 in 10.0 mi East 5.8 mph - N/A   Clear
9:55 AM 86.0 °F 43.0 °F 22% 29.97 in 10.0 mi ENE 9.2 mph - N/A   Clear
10:55 AM 87.1 °F 39.0 °F 18% 29.97 in 10.0 mi East 11.5 mph 16.1 mph N/A   Clear
11:55 AM 90.0 °F 36.0 °F 15% 29.97 in 10.0 mi NE 15.0 mph 21.9 mph N/A   Clear
12:55 PM 88.0 °F 34.0 °F 15% 29.96 in 10.0 mi Calm Calm - N/A   Clear
1:55 PM 91.0 °F 36.0 °F 14% 29.94 in 10.0 mi NNE 11.5 mph 18.4 mph N/A   Clear
2:55 PM 91.9 °F 36.0 °F 14% 29.93 in 10.0 mi NE 10.4 mph 18.4 mph N/A   Clear
3:55 PM 91.9 °F 36.0 °F 14% 29.92 in 10.0 mi NE 9.2 mph - N/A   Clear
4:55 PM 91.0 °F 34.0 °F 13% 29.91 in 10.0 mi NNE 8.1 mph - N/A   Clear
5:55 PM 90.0 °F 33.1 °F 13% 29.93 in 9.0 mi East 12.7 mph - N/A   Clear
6:55 PM 88.0 °F 34.0 °F 15% 29.90 in 10.0 mi East 12.7 mph - N/A   Clear
7:55 PM 82.0 °F 37.0 °F 20% 29.91 in 10.0 mi East 11.5 mph - N/A   Clear
8:55 PM 75.9 °F 37.9 °F 25% 29.91 in 10.0 mi East 9.2 mph - N/A   Clear
9:55 PM 75.9 °F 36.0 °F 23% 29.93 in 10.0 mi East 12.7 mph - N/A   Clear
10:55 PM 73.9 °F 46.9 °F 38% 29.94 in 10.0 mi ESE 12.7 mph - N/A   Clear
11:55 PM 68.0 °F 46.9 °F 47% 29.95 in 10.0 mi SE 8.1 mph - N/A   Clear